Location: Oakhurst
(33.6448°N, 111.9543°W)
Time: 02:13:59
(UTC+00:00)

X-37B - Pass Details

Date: 14 May 2021
Orbit: 386 x 389 km, 45.0° (Epoch: 23 June)

Event Time Altitude Azimuth Distance (km) Brightness Sun altitude
Rises 03:19:37 0° 311° (NW) 2,272 6.5 -11.7°
Reaches altitude 10° 03:21:56 10° 325° (NW) 1,415 4.6 -12.1°
Maximum altitude 03:24:37 24° 23° (NNE) 844 2.4 -12.6°
Enters shadow 03:26:41 14° 73° (ENE) 1,216 2.7 -13.0°
